User: anonymous   Login
Location: Sperry Observatory
(40.6664°N, 74.3236°W)
Time: 17:15:59
(UTC-05:00)
Language:

UOSAT-12 - Orbit

View from above orbital plane
View from above orbital plane
View from above satellite
View from above satellite

Ground track
Ground track

The orbit data is extracted from the following two-line orbital elements,

1 25693U 99021A   16337.17895366  .00000166  00000-0  21436-4 0  9994
2 25693  64.5578  12.8454 0014907 328.6863  31.3847 14.80701058950995
Epoch (UTC): 02 December 2016 04:17:41
Eccentricity: 0.0014907
inclination: 64.5578°
perigee height: 616 km
apogee height: 637 km
right ascension of ascending node: 12.8454°
argument of perigee: 328.6863°
revolutions per day: 14.80701058
mean anomaly at epoch: 31.3847°
orbit number at epoch: 95099

The dashed part of the orbit path shows where the satellite is in the earth's shadow,  

DLR